COSMOS 2564 (761)

Last updated on Sun Jun 21 2026 00:03:28 GMT+0000 (Coordinated Universal Time)

1 54377U 22161A 26171.05664634 .00000061 00000+0 00000+0 0 9994 2 54377 64.7420 192.6165 0012215 224.8634 135.0824 2.13102033 27693
UTC large
Height (km)
Speed (km/s)
/
Latitude / Longitude
Inclination (degrees)
Orbital Period (minutes)
Azimuth
Elevation
Range (km)
Doppler Factor

Next 0 passes for location: London (51.5072 / 0.1276)

No passes found over London.
COSMOS 2564 (761)